Flag for Romania Weather past 2 weeks in Târgu Mureş, Romania

Now
54 °F

Passing clouds.


Feels Like: 51 °F
Forecast: 43 / 72 °F
Wind: 9 mph from Northwest

Location: Tirgu Mures Airport

Current Time: Aug 28, 2014 at 8:12:11 AM

Latest Report: Aug 28, 2014 at 7:30 AM


Visibility: N/A

Pressure: 30.04 "Hg

Humidity: 88%

Dew point: 50 °F

Location of Târgu MureşLocation

Historic Weather in Târgu Mureş — Graph

°F

Târgu Mureş temperature yesterday

Maximum temperature yesterday: 66 °F (at 12:00 AM)
Minimum temperature yesterday: 57 °F (at 4:00 AM)
Average temperature yesterday: 63 °F

Past Weeks' High & Low Weather Summary

 TemperatureHumidityPressure
High95 °F (Aug 14, 2:30 PM)100% (Aug 13, 7:00 AM)30.12 "Hg (Aug 13, 7:00 AM)
Low46 °F (Aug 26, 5:00 AM)29% (Aug 20, 3:30 PM)29.77 "Hg (Aug 14, 4:30 PM)
Average68 °F72%29.96 "Hg
* Reported Aug 13 7:00 AM — Aug 28 7:00 AM, Târgu Mureş, Weather by CustomWeather, © 2014

Note: Actual official high and low records may vary slightly from our data, if they occured in-between our weather recording intervals... More about our weather records

Advertising

Târgu Mureş weather history for previous 24 hours

 ConditionsComfort  
Time TempWeatherWind HumidityBarometerVisibility
7:00 AM
Aug 28
54 °FPassing clouds.12 mph94%30.01 "HgN/A
6:30 AM54 °FPassing clouds.5 mph94%30.01 "HgN/A
5:30 AM55 °FPartly cloudy.9 mph94%29.95 "HgN/A
5:00 AM59 °FPassing clouds.9 mph88%29.92 "HgN/A
4:00 AM57 °FPassing clouds.5 mph100%29.89 "Hg2 mi
3:00 AM57 °FCool.No wind100%29.89 "Hg1 mi
2:00 AM59 °FCool.No wind100%29.89 "Hg1 mi
1:00 AM57 °FPassing clouds.2 mph100%29.89 "HgN/A
12:00 AM59 °FPassing clouds.2 mph100%29.89 "HgN/A
11:00 PM
Aug 27
59 °FPassing clouds.2 mph100%29.86 "HgN/A
10:00 PM61 °FPartly cloudy.2 mph100%29.86 "HgN/A
9:00 PM61 °FBroken clouds.2 mph100%29.83 "HgN/A
8:30 PM63 °FBroken clouds.5 mph94%29.83 "HgN/A
8:00 PM63 °FBroken clouds.2 mph94%29.83 "HgN/A
7:30 PM63 °FBroken clouds.2 mph94%29.83 "HgN/A
7:00 PM64 °FScattered clouds.2 mph88%29.83 "HgN/A
6:00 PM63 °FSprinkles. Broken clouds.7 mph94%29.83 "HgN/A
5:30 PM63 °FSprinkles. Broken clouds.7 mph94%29.83 "HgN/A
5:00 PM63 °FSprinkles. More clouds than sun.7 mph94%29.83 "Hg5 mi
4:30 PM64 °FSprinkles. Fog.5 mph100%29.83 "Hg3 mi
4:00 PM66 °FRain showers. Fog.2 mph94%29.83 "Hg1 mi
3:30 PM66 °FSprinkles. Fog.2 mph94%29.83 "Hg3 mi
3:00 PM66 °FLight rain. Partly sunny.5 mph94%29.83 "Hg4 mi
2:30 PM66 °FLight rain. Partly sunny.5 mph94%29.83 "Hg4 mi
2:00 PM64 °FLight rain. Partly sunny.2 mph94%29.86 "Hg5 mi
1:30 PM64 °FLight rain. Partly sunny.5 mph94%29.83 "Hg4 mi
1:00 PM64 °FLight rain. Partly sunny.No wind94%29.83 "Hg5 mi
12:30 PM64 °FRain. Fog.5 mph94%29.86 "Hg2 mi
12:00 PM64 °FSprinkles. Broken clouds.5 mph94%29.83 "Hg4 mi
11:30 AM66 °FPartly sunny.2 mph83%29.83 "HgN/A
11:00 AM66 °FPartly sunny.2 mph83%29.83 "HgN/A
10:30 AM66 °FScattered clouds.5 mph83%29.83 "HgN/A
10:00 AM66 °FScattered clouds.5 mph78%29.83 "HgN/A
9:30 AM66 °FSprinkles. Scattered clouds.5 mph78%29.83 "HgN/A
9:00 AM64 °FPassing clouds.5 mph83%29.83 "HgN/A
8:30 AM64 °FSprinkles. Passing clouds.5 mph83%29.83 "Hg6 mi
8:00 AM63 °FPassing clouds.5 mph88%29.83 "Hg5 mi
Weather by CustomWeather, © 2014

See weather overviewHow to use our weather pages